Waukegan, IL

2:54 PM CDT on September 24, 2017 (GMT -0500)
Waukegan Regional

Weather History for KUGN - June, 2013

Change the Weather History Date:

Sunday, June 9, 2013

  Actual Average Record
Temperature  
Mean Temperature 61 °F -  
Max Temperature 72 °F 74 °F 89 °F (2012)
Min Temperature 49 °F 53 °F 46 °F (2016)
Degree Days  
Heating Degree Days 4 4  
Month to date heating degree days 77 46  
Since 1 June heating degree days 77 46  
Since 1 July heating degree days 6665 6797  
Cooling Degree Days 0 2  
Month to date cooling degree days 5 16  
Year to date cooling degree days 52 41  
Since 1 June cooling degree days 5 16  
Growing Degree Days 11 (Base 50)    
Moisture  
Dew Point 54 °F    
Average Humidity 76    
Maximum Humidity 89    
Minimum Humidity 63    
Precipitation  
Precipitation 0.01 in 0.15 in 0.59 in (2011)
Month to date precipitation 0.38 1.39  
Year to date precipitation 14.24 14.25  
Sea Level Pressure  
Sea Level Pressure 29.92 in    
Wind  
Wind Speed 5 mph (East)    
Max Wind Speed 14 mph    
Max Gust Speed 18 mph    
Visibility 8 miles    
Events      
T = Trace of Precipitation, MM = Missing Value Source: NWS Daily Summary

Daily Weather History Graph

Daily Weather History Graph

Search for Another Location

Airport or City:

Trip Planner

Search our weather history database for the weather conditions in past years. The results will help you decide how hot, cold, wet, or windy it might be!

Date:

Astronomy

Jun. 09, 2013 Rise Set
Actual Time 5:14 AM CDT 8:27 PM CDT
Civil Twilight 4:39 AM CDT 9:02 PM CDT
Nautical Twilight 3:55 AM CDT 9:46 PM CDT
Astronomical Twilight 3:01 AM CDT 10:40 PM CDT
Moon 6:11 AM CDT (6/9) 9:12 PM CDT (6/9)
Length of Visible Light 16h 22m
Length of Day
15h 13m
New Moon, 1% of the Moon is Illuminated
Jun 9
New Moon
Jun 16
First Quarter
Jun 23
Full
Jun 29
Last Quarter
Jul 8
New

Hourly Weather History & Observations

Time (CDT) Temp. Dew Point Humidity Pressure Visibility Wind Dir Wind Speed Gust Speed Precip Events Conditions
12:52 AM 50.0 °F 46.9 °F 89% 30.02 in 8.0 mi Calm Calm - N/A   Clear
1:52 AM 51.1 °F 48.0 °F 89% 30.01 in 9.0 mi NNE 3.5 mph - N/A   Overcast
2:52 AM 51.1 °F 48.0 °F 89% 29.99 in 10.0 mi Calm Calm - N/A   Scattered Clouds
3:52 AM 52.0 °F 48.9 °F 89% 29.99 in 10.0 mi NE 4.6 mph - N/A   Scattered Clouds
4:52 AM 53.1 °F 48.9 °F 86% 30.00 in 10.0 mi Calm Calm - N/A   Mostly Cloudy
5:52 AM 53.1 °F 48.0 °F 83% 29.99 in 10.0 mi ENE 3.5 mph - N/A   Scattered Clouds
6:52 AM 55.9 °F 50.0 °F 80% 29.99 in 10.0 mi ENE 4.6 mph - N/A   Overcast
7:52 AM 61.0 °F 53.1 °F 75% 29.98 in 10.0 mi Calm Calm - N/A   Partly Cloudy
8:52 AM 66.0 °F 55.0 °F 68% 29.97 in 10.0 mi SE 4.6 mph - N/A   Partly Cloudy
9:52 AM 68.0 °F 55.9 °F 65% 29.97 in 8.0 mi SE 6.9 mph - N/A   Partly Cloudy
10:52 AM 68.0 °F 57.9 °F 70% 29.95 in 8.0 mi ESE 5.8 mph - N/A   Clear
11:52 AM 69.1 °F 61.0 °F 75% 29.95 in 4.0 mi ESE 8.1 mph - N/A   Haze
12:52 PM 71.1 °F 61.0 °F 70% 29.92 in 4.0 mi SE 12.7 mph - N/A   Haze
1:52 PM 71.1 °F 61.0 °F 70% 29.91 in 4.0 mi ESE 9.2 mph - N/A   Haze
2:52 PM 72.0 °F 60.1 °F 66% 29.89 in 6.0 mi ESE 10.4 mph - N/A   Haze
3:52 PM 71.1 °F 59.0 °F 66% 29.87 in 7.0 mi East 8.1 mph - N/A   Mostly Cloudy
4:52 PM 69.1 °F 57.0 °F 65% 29.85 in 6.0 mi East 8.1 mph - N/A   Haze
5:52 PM 70.0 °F 57.0 °F 63% 29.84 in 6.0 mi East 9.2 mph - N/A   Haze
6:52 PM 66.9 °F 55.9 °F 68% 29.84 in 6.0 mi East 5.8 mph - N/A   Haze
7:52 PM 66.0 °F 54.0 °F 65% 29.83 in 7.0 mi East 6.9 mph - N/A   Mostly Cloudy
8:52 PM 64.0 °F 54.0 °F 70% 29.82 in 8.0 mi East 4.6 mph - N/A   Clear
9:52 PM 63.0 °F 54.0 °F 72% 29.82 in 6.0 mi East 5.8 mph - N/A   Haze
10:52 PM 63.0 °F 54.0 °F 72% 29.81 in 7.0 mi East 3.5 mph - N/A   Overcast
11:52 PM 61.0 °F 55.0 °F 81% 29.81 in 6.0 mi East 4.6 mph - 0.00 in   Haze